Location: Ch?enovice
(49.7164°N, 15.2160°E)
Time: 21:17:46
(UTC+00:00)

SL-16 R/B - Pass Details

Date: 23 May 2024
Orbit: 985 x 1007 km, 99.7° (Epoch: 20 June)

Event Time Altitude Azimuth Distance (km) Brightness Sun altitude
Rises 00:05:04 0° 124° (SE) 3,728 5.4 -18.0°
Reaches altitude 10° 00:07:50 10° 114° (ESE) 2,782 4.8 -17.9°
Maximum altitude 00:13:06 30° 57° (ENE) 1,741 4.3 -17.6°
Drops below altitude 10° 00:18:23 10° 360° (N) 2,794 6.0 -17.3°
Sets 00:21:09 0° 350° (N) 3,746 6.6 -17.1°
